TVP7106 EPWA-HEMA

Flight info

Callsign TVP7106
Flight time 3h 54m
Altitude 35000
Route XIMBA DCT OMAVA DCT ROBTU DCT NARKA DCT NIKTI DCT PAXIS/N0466F370 DCT NABSI DCT LOTOB DCT KUNKI DCT AST DCT LXR M999 ELELI V730 ALKUN ALKUN1D
Aircraft B738/M-SDE2E3FGHIRWXY/LB1

Departure

Time 2026-04-26 07:19
Airport Warsaw Chopin Airport (EPWA)

Arrival

Time 2026-04-26 11:14
Airport Marsa Alam International Airport (HEMA)
Time Latitude Longitude Altitude Speed Heading
2026-04-26 06:53 52.17385 20.96510 338 ft 0 kts 207°
2026-04-26 06:53 52.17393 20.96516 338 ft 0 kts 27°
2026-04-26 07:12 52.17393 20.96517 338 ft 1 kts 27°
2026-04-26 07:12 52.17413 20.96543 338 ft 5 kts 52°
2026-04-26 07:12 52.17416 20.96592 338 ft 5 kts 108°
2026-04-26 07:12 52.17377 20.96648 338 ft 11 kts 150°
2026-04-26 07:13 52.17296 20.96719 337 ft 13 kts 152°
2026-04-26 07:13 52.17224 20.96782 336 ft 8 kts 152°
2026-04-26 07:13 52.17180 20.96806 336 ft 6 kts 197°
2026-04-26 07:13 52.17151 20.96752 333 ft 7 kts 240°
2026-04-26 07:14 52.17122 20.96671 336 ft 8 kts 229°
2026-04-26 07:14 52.17072 20.96675 335 ft 8 kts 154°
2026-04-26 07:14 52.16993 20.96744 335 ft 17 kts 152°
2026-04-26 07:14 52.16905 20.96821 338 ft 16 kts 152°
2026-04-26 07:15 52.16809 20.96904 336 ft 16 kts 152°
2026-04-26 07:15 52.16714 20.96985 334 ft 15 kts 152°
2026-04-26 07:15 52.16625 20.97064 336 ft 14 kts 152°
2026-04-26 07:15 52.16538 20.97138 335 ft 14 kts 152°
2026-04-26 07:16 52.16458 20.97210 333 ft 12 kts 149°
2026-04-26 07:16 52.16405 20.97316 334 ft 12 kts 115°
2026-04-26 07:16 52.16369 20.97447 334 ft 13 kts 115°
2026-04-26 07:16 52.16331 20.97581 336 ft 14 kts 115°
2026-04-26 07:17 52.16290 20.97724 336 ft 13 kts 114°
2026-04-26 07:17 52.16248 20.97876 336 ft 18 kts 114°
2026-04-26 07:17 52.16197 20.98059 334 ft 16 kts 114°
2026-04-26 07:17 52.16176 20.98151 336 ft 2 kts 163°
2026-04-26 07:18 52.16174 20.98139 336 ft 1 kts 273°
2026-04-26 07:18 52.16201 20.98039 336 ft 32 kts 294°
2026-04-26 07:18 52.16390 20.97377 335 ft 98 kts 295°
2026-04-26 07:18 52.16763 20.96074 375 ft 147 kts 292°
2026-04-26 07:19 52.17186 20.94472 917 ft 160 kts 296°
2026-04-26 07:19 52.17655 20.92777 1697 ft 166 kts 297°
2026-04-26 07:19 52.18128 20.91057 2422 ft 174 kts 293°
2026-04-26 07:19 52.18146 20.88966 2592 ft 203 kts 260°
2026-04-26 07:20 52.17779 20.86627 2791 ft 222 kts 264°
2026-04-26 07:20 52.17442 20.84067 3064 ft 238 kts 264°
2026-04-26 07:20 52.17086 20.81385 3569 ft 244 kts 264°
2026-04-26 07:20 52.16724 20.78679 4186 ft 247 kts 263°
2026-04-26 07:21 52.16321 20.75921 4820 ft 252 kts 256°
2026-04-26 07:21 52.15310 20.73501 5366 ft 271 kts 224°
2026-04-26 07:21 52.13581 20.72153 5909 ft 287 kts 192°
2026-04-26 07:21 52.11564 20.72346 6527 ft 294 kts 171°
2026-04-26 07:22 52.09553 20.73048 7102 ft 298 kts 169°
2026-04-26 07:22 52.07517 20.73822 7676 ft 302 kts 168°
2026-04-26 07:22 52.05454 20.74617 8283 ft 305 kts 168°
2026-04-26 07:22 52.03397 20.75402 8895 ft 309 kts 169°
2026-04-26 07:23 52.01290 20.76196 9528 ft 313 kts 169°
2026-04-26 07:23 51.99137 20.76997 10153 ft 316 kts 169°
2026-04-26 07:23 51.96941 20.77803 10404 ft 334 kts 169°
2026-04-26 07:23 51.94603 20.78652 10575 ft 353 kts 169°
2026-04-26 07:24 51.92143 20.79541 10724 ft 371 kts 169°
2026-04-26 07:24 51.89551 20.80475 10902 ft 388 kts 169°
2026-04-26 07:24 51.86884 20.81436 11235 ft 397 kts 169°
2026-04-26 07:24 51.84194 20.82404 11735 ft 404 kts 169°
2026-04-26 07:25 51.81439 20.83395 12309 ft 408 kts 170°
2026-04-26 07:25 51.78656 20.84393 12897 ft 411 kts 170°
2026-04-26 07:25 51.75856 20.85395 13605 ft 413 kts 170°
2026-04-26 07:25 51.73034 20.86403 14092 ft 419 kts 170°
2026-04-26 07:26 51.70147 20.87431 14508 ft 427 kts 170°
2026-04-26 07:26 51.67222 20.88470 14945 ft 435 kts 171°
2026-04-26 07:26 51.64240 20.89528 15396 ft 442 kts 171°
2026-04-26 07:26 51.61228 20.90596 15871 ft 448 kts 171°
2026-04-26 07:27 51.58146 20.91688 16296 ft 455 kts 171°
2026-04-26 07:27 51.55031 20.92790 16726 ft 462 kts 171°
2026-04-26 07:27 51.51876 20.93904 17169 ft 469 kts 171°
2026-04-26 07:27 51.48653 20.95041 17606 ft 476 kts 171°
2026-04-26 07:28 51.45399 20.96188 18034 ft 482 kts 171°
2026-04-26 07:28 51.42097 20.97349 18434 ft 489 kts 171°
2026-04-26 07:28 51.38769 20.98519 18838 ft 494 kts 171°
2026-04-26 07:28 51.35392 20.99706 19302 ft 496 kts 171°
2026-04-26 07:29 51.32013 21.00891 19737 ft 500 kts 172°
2026-04-26 07:29 51.28594 21.02088 20189 ft 503 kts 172°
2026-04-26 07:29 51.25162 21.03287 20590 ft 507 kts 172°
2026-04-26 07:29 51.21702 21.04492 20980 ft 511 kts 172°
2026-04-26 07:30 51.18212 21.05707 21362 ft 515 kts 172°
2026-04-26 07:30 51.14742 21.06912 21757 ft 519 kts 172°
2026-04-26 07:30 51.11208 21.08139 22148 ft 522 kts 172°
2026-04-26 07:30 51.07639 21.09375 22445 ft 526 kts 173°
2026-04-26 07:31 51.04044 21.10620 22834 ft 529 kts 173°
2026-04-26 07:31 51.00439 21.11865 23228 ft 532 kts 173°
2026-04-26 07:31 50.96801 21.13120 23601 ft 535 kts 173°
2026-04-26 07:31 50.93148 21.14378 23909 ft 538 kts 173°
2026-04-26 07:32 50.89473 21.15642 24291 ft 540 kts 173°
2026-04-26 07:32 50.85790 21.16907 24661 ft 541 kts 173°
2026-04-26 07:32 50.82105 21.18171 25002 ft 543 kts 173°
2026-04-26 07:32 50.78465 21.19417 25259 ft 544 kts 173°
2026-04-26 07:33 50.74713 21.20699 25601 ft 545 kts 173°
2026-04-26 07:33 50.70993 21.21967 25880 ft 547 kts 173°
2026-04-26 07:33 50.67311 21.23220 26155 ft 550 kts 173°
2026-04-26 07:33 50.63567 21.24492 26433 ft 552 kts 173°
2026-04-26 07:34 50.59756 21.25785 26713 ft 554 kts 173°
2026-04-26 07:34 50.55991 21.27060 27016 ft 555 kts 173°
2026-04-26 07:34 50.52206 21.28341 27298 ft 554 kts 173°
2026-04-26 07:34 50.48489 21.29599 27644 ft 555 kts 173°
2026-04-26 07:35 50.44711 21.30872 27920 ft 557 kts 174°
2026-04-26 07:35 50.40895 21.32154 28062 ft 562 kts 174°
2026-04-26 07:35 50.37060 21.33440 28269 ft 564 kts 174°
2026-04-26 07:35 50.33221 21.34728 28586 ft 564 kts 174°
2026-04-26 07:36 50.29402 21.36010 28908 ft 561 kts 174°
2026-04-26 07:36 50.25596 21.37288 29484 ft 555 kts 174°
2026-04-26 07:36 50.21830 21.38551 30012 ft 552 kts 174°
2026-04-26 07:36 50.18082 21.39802 30290 ft 552 kts 174°
2026-04-26 07:37 50.14322 21.41050 30494 ft 553 kts 174°
2026-04-26 07:37 50.10551 21.42299 30754 ft 553 kts 174°
2026-04-26 07:37 50.06784 21.43547 31092 ft 551 kts 174°
2026-04-26 07:37 50.03045 21.44786 31392 ft 548 kts 174°
2026-04-26 07:38 49.99335 21.46016 31902 ft 542 kts 174°
2026-04-26 07:38 49.95654 21.47235 32367 ft 537 kts 174°
2026-04-26 07:38 49.92005 21.48439 32704 ft 535 kts 174°
2026-04-26 07:38 49.88378 21.49631 33008 ft 533 kts 174°
2026-04-26 07:39 49.84758 21.50819 33287 ft 532 kts 174°
2026-04-26 07:39 49.81128 21.52007 33535 ft 532 kts 174°
2026-04-26 07:39 49.77502 21.53192 33692 ft 532 kts 174°
2026-04-26 07:39 49.73907 21.54367 34042 ft 528 kts 174°
2026-04-26 07:40 49.70358 21.55528 34372 ft 524 kts 174°
2026-04-26 07:40 49.66800 21.56691 34722 ft 520 kts 174°
2026-04-26 07:40 49.63273 21.57842 35031 ft 517 kts 174°
2026-04-26 07:41 49.56193 21.60135 35028 ft 520 kts 174°
2026-04-26 07:41 49.49147 21.62418 34988 ft 513 kts 174°
2026-04-26 07:42 49.42188 21.64669 35010 ft 509 kts 174°
2026-04-26 07:42 49.35263 21.66897 35018 ft 507 kts 174°
2026-04-26 07:43 49.28406 21.69096 35001 ft 507 kts 174°
2026-04-26 07:43 49.21511 21.71303 35003 ft 505 kts 174°
2026-04-26 07:44 49.14620 21.73503 35033 ft 506 kts 175°
2026-04-26 07:44 49.07721 21.75699 35018 ft 507 kts 175°
2026-04-26 07:45 49.00798 21.77897 35012 ft 508 kts 175°
2026-04-26 07:45 48.95026 21.79726 34997 ft 509 kts 175°
2026-04-26 07:46 48.86943 21.81775 34994 ft 499 kts 186°
2026-04-26 07:46 48.80032 21.81927 34999 ft 497 kts 187°
2026-04-26 07:47 48.73098 21.82001 34987 ft 498 kts 187°
2026-04-26 07:47 48.67286 21.82117 34987 ft 500 kts 186°
2026-04-26 07:48 48.60365 21.82301 34998 ft 501 kts 186°
2026-04-26 07:48 48.53377 21.82502 34950 ft 502 kts 186°
2026-04-26 07:49 48.46392 21.82702 34975 ft 503 kts 186°
2026-04-26 07:49 48.39386 21.82897 34984 ft 503 kts 186°
2026-04-26 07:50 48.28893 21.83187 34956 ft 502 kts 185°
2026-04-26 07:50 48.21913 21.83381 34972 ft 501 kts 185°
2026-04-26 07:51 48.14992 21.83572 34993 ft 499 kts 185°
2026-04-26 07:51 48.08056 21.83762 34963 ft 497 kts 185°
2026-04-26 07:52 48.01158 21.83950 34986 ft 495 kts 186°
2026-04-26 07:52 47.94268 21.84137 34991 ft 494 kts 186°
2026-04-26 07:53 47.87397 21.84324 34992 ft 494 kts 186°
2026-04-26 07:53 47.80530 21.84509 34969 ft 493 kts 185°
2026-04-26 07:54 47.73675 21.84694 34966 ft 494 kts 185°
2026-04-26 07:54 47.66775 21.84879 34966 ft 495 kts 185°
2026-04-26 07:55 47.59880 21.85064 34953 ft 495 kts 184°
2026-04-26 07:55 47.53014 21.85248 34966 ft 497 kts 185°
2026-04-26 07:56 47.46099 21.85433 34968 ft 498 kts 185°
2026-04-26 07:56 47.39170 21.85619 34932 ft 498 kts 184°
2026-04-26 07:57 47.32243 21.85804 34957 ft 498 kts 184°
2026-04-26 07:57 47.25335 21.86130 34944 ft 500 kts 178°
2026-04-26 07:58 47.21882 21.87064 34948 ft 505 kts 167°
2026-04-26 07:58 47.18514 21.88536 34970 ft 505 kts 166°
2026-04-26 07:58 47.11805 21.91604 34953 ft 503 kts 165°
2026-04-26 07:59 47.05167 21.94597 34957 ft 500 kts 166°
2026-04-26 07:59 46.98540 21.97512 34960 ft 497 kts 166°
2026-04-26 08:00 46.91926 22.00385 34925 ft 493 kts 166°
2026-04-26 08:00 46.85372 22.03220 34957 ft 490 kts 166°
2026-04-26 08:01 46.78847 22.06039 34964 ft 487 kts 166°
2026-04-26 08:01 46.72352 22.08841 34976 ft 486 kts 166°
2026-04-26 08:02 46.65861 22.11634 34969 ft 485 kts 166°
2026-04-26 08:02 46.59388 22.14412 34974 ft 486 kts 166°
2026-04-26 08:03 46.52881 22.17198 34978 ft 487 kts 166°
2026-04-26 08:03 46.46360 22.19983 34970 ft 489 kts 166°
2026-04-26 08:04 46.39870 22.22748 34966 ft 489 kts 165°
2026-04-26 08:04 46.33350 22.25520 34972 ft 488 kts 165°
2026-04-26 08:05 46.26825 22.28287 34970 ft 487 kts 165°
2026-04-26 08:05 46.20340 22.31030 34978 ft 485 kts 165°
2026-04-26 08:06 46.13860 22.33764 34973 ft 483 kts 165°
2026-04-26 08:06 46.07452 22.36461 34973 ft 482 kts 165°
2026-04-26 08:07 46.01019 22.39162 34986 ft 480 kts 165°
2026-04-26 08:07 45.94604 22.41848 34979 ft 479 kts 165°
2026-04-26 08:08 45.88198 22.44524 34991 ft 479 kts 165°
2026-04-26 08:08 45.81833 22.47177 34993 ft 480 kts 165°
2026-04-26 08:09 45.75382 22.49859 34991 ft 481 kts 165°
2026-04-26 08:09 45.68977 22.52515 34988 ft 482 kts 165°
2026-04-26 08:10 45.62490 22.55199 34985 ft 483 kts 165°
2026-04-26 08:10 45.56068 22.57851 34993 ft 484 kts 165°
2026-04-26 08:11 45.49603 22.60514 34989 ft 484 kts 165°
2026-04-26 08:11 45.43109 22.63182 34978 ft 485 kts 165°
2026-04-26 08:12 45.36607 22.65847 34998 ft 486 kts 166°
2026-04-26 08:12 45.30092 22.68511 34989 ft 486 kts 166°
2026-04-26 08:13 45.23598 22.71160 34978 ft 486 kts 166°
2026-04-26 08:13 45.17142 22.73787 34966 ft 485 kts 166°
2026-04-26 08:14 45.10663 22.76417 34960 ft 484 kts 166°
2026-04-26 08:14 45.04197 22.79037 34946 ft 481 kts 165°
2026-04-26 08:15 44.97776 22.81632 34956 ft 479 kts 165°
2026-04-26 08:15 44.91380 22.84210 34953 ft 476 kts 165°
2026-04-26 08:16 44.85022 22.86768 34964 ft 474 kts 166°
2026-04-26 08:16 44.78689 22.89309 34969 ft 472 kts 166°
2026-04-26 08:17 44.72383 22.91833 34973 ft 471 kts 166°
2026-04-26 08:17 44.66074 22.94353 34981 ft 471 kts 166°
2026-04-26 08:18 44.59768 22.96866 34974 ft 472 kts 166°
2026-04-26 08:18 44.53421 22.99390 34986 ft 474 kts 166°
2026-04-26 08:19 44.47067 23.01911 34986 ft 475 kts 166°
2026-04-26 08:19 44.40728 23.04420 34992 ft 477 kts 166°
2026-04-26 08:20 44.34333 23.06947 34998 ft 478 kts 167°
2026-04-26 08:20 44.27930 23.09470 34989 ft 478 kts 167°
2026-04-26 08:21 44.21519 23.11991 34990 ft 478 kts 167°
2026-04-26 08:21 44.15141 23.14492 34984 ft 477 kts 168°
2026-04-26 08:22 44.08750 23.16994 34990 ft 475 kts 168°
2026-04-26 08:22 44.02397 23.19474 35004 ft 474 kts 168°
2026-04-26 08:23 43.96035 23.21954 34996 ft 473 kts 168°
2026-04-26 08:23 43.89703 23.24416 34999 ft 472 kts 169°
2026-04-26 08:24 43.83379 23.26870 35003 ft 471 kts 169°
2026-04-26 08:24 43.77116 23.29295 35001 ft 471 kts 169°
2026-04-26 08:25 43.70785 23.31740 35000 ft 471 kts 169°
2026-04-26 08:25 43.64467 23.34175 35008 ft 471 kts 169°
2026-04-26 08:26 43.58144 23.36606 35016 ft 472 kts 169°
2026-04-26 08:26 43.51814 23.39035 35021 ft 472 kts 169°
2026-04-26 08:27 43.45467 23.41465 35015 ft 473 kts 169°
2026-04-26 08:27 43.39129 23.43886 35020 ft 473 kts 169°
2026-04-26 08:28 43.32772 23.46310 35028 ft 474 kts 169°
2026-04-26 08:28 43.26402 23.48733 35024 ft 475 kts 169°
2026-04-26 08:29 43.20068 23.51137 35028 ft 475 kts 169°
2026-04-26 08:29 43.13692 23.53552 35037 ft 476 kts 169°
2026-04-26 08:30 43.07313 23.55963 35041 ft 475 kts 169°
2026-04-26 08:30 43.00944 23.58371 35051 ft 474 kts 169°
2026-04-26 08:31 42.94581 23.60763 35049 ft 474 kts 169°
2026-04-26 08:31 42.88217 23.63149 35049 ft 474 kts 169°
2026-04-26 08:32 42.81850 23.65534 35046 ft 475 kts 169°
2026-04-26 08:32 42.76550 23.67516 35046 ft 475 kts 168°
2026-04-26 08:33 42.69133 23.70284 35045 ft 475 kts 168°
2026-04-26 08:33 42.62757 23.72659 35045 ft 475 kts 168°
2026-04-26 08:34 42.57416 23.74643 35054 ft 475 kts 168°
2026-04-26 08:34 42.51080 23.76993 35049 ft 475 kts 168°
2026-04-26 08:35 42.44692 23.79357 35030 ft 475 kts 168°
2026-04-26 08:35 42.38320 23.81710 35040 ft 475 kts 168°
2026-04-26 08:36 42.31931 23.84065 35043 ft 475 kts 168°
2026-04-26 08:36 42.25552 23.86411 35041 ft 475 kts 168°
2026-04-26 08:37 42.19177 23.88750 35035 ft 475 kts 168°
2026-04-26 08:37 42.12791 23.91089 35027 ft 474 kts 168°
2026-04-26 08:38 42.06414 23.93419 35035 ft 474 kts 168°
2026-04-26 08:38 42.00055 23.95738 35020 ft 474 kts 168°
2026-04-26 08:39 41.93722 23.98044 35019 ft 474 kts 168°
2026-04-26 08:39 41.87308 24.00373 35026 ft 475 kts 168°
2026-04-26 08:40 41.80967 24.02671 35015 ft 475 kts 168°
2026-04-26 08:40 41.74568 24.04986 35032 ft 476 kts 168°
2026-04-26 08:41 41.68178 24.07293 35029 ft 476 kts 167°
2026-04-26 08:41 41.61780 24.09598 35018 ft 477 kts 167°
2026-04-26 08:42 41.55366 24.11905 35022 ft 477 kts 167°
2026-04-26 08:42 41.49037 24.14652 35017 ft 478 kts 162°
2026-04-26 08:43 41.42781 24.17667 35011 ft 479 kts 162°
2026-04-26 08:43 41.36518 24.20683 35026 ft 478 kts 162°
2026-04-26 08:44 41.30295 24.23631 35019 ft 478 kts 162°
2026-04-26 08:44 41.24018 24.26575 35026 ft 477 kts 162°
2026-04-26 08:45 41.17765 24.29497 35021 ft 477 kts 162°
2026-04-26 08:45 41.11507 24.32416 35028 ft 476 kts 162°
2026-04-26 08:46 41.05247 24.35331 35024 ft 476 kts 162°
2026-04-26 08:46 40.98994 24.38238 35022 ft 476 kts 162°
2026-04-26 08:47 40.92745 24.41138 35023 ft 476 kts 161°
2026-04-26 08:47 40.86486 24.44036 35021 ft 476 kts 161°
2026-04-26 08:48 40.80241 24.46922 35024 ft 476 kts 161°
2026-04-26 08:48 40.73982 24.49808 35030 ft 476 kts 161°
2026-04-26 08:49 40.67768 24.52668 35031 ft 476 kts 161°
2026-04-26 08:49 40.61500 24.55548 35033 ft 476 kts 161°
2026-04-26 08:50 40.55234 24.58421 35032 ft 477 kts 161°
2026-04-26 08:50 40.48964 24.61289 35031 ft 477 kts 161°
2026-04-26 08:51 40.39560 24.65581 35036 ft 477 kts 161°
2026-04-26 08:52 40.33295 24.68434 35035 ft 477 kts 161°
2026-04-26 08:52 40.27014 24.71288 35034 ft 477 kts 161°
2026-04-26 08:53 40.20732 24.74137 35039 ft 477 kts 161°
2026-04-26 08:53 40.14454 24.76978 35035 ft 477 kts 161°
2026-04-26 08:54 40.08171 24.79816 35033 ft 477 kts 161°
2026-04-26 08:54 40.01928 24.82631 35037 ft 477 kts 161°
2026-04-26 08:55 39.95645 24.85458 35034 ft 477 kts 161°
2026-04-26 08:55 39.89372 24.88275 35035 ft 477 kts 161°
2026-04-26 08:56 39.83091 24.91090 35032 ft 477 kts 160°
2026-04-26 08:56 39.76800 24.93904 35036 ft 477 kts 160°
2026-04-26 08:57 39.70511 24.96712 35036 ft 477 kts 160°
2026-04-26 08:57 39.64265 24.99496 35039 ft 477 kts 160°
2026-04-26 08:58 39.57969 25.02296 35046 ft 478 kts 160°
2026-04-26 08:58 39.51681 25.05087 35047 ft 478 kts 160°
2026-04-26 08:59 39.45388 25.07876 35037 ft 478 kts 160°
2026-04-26 08:59 39.39126 25.10645 35041 ft 478 kts 160°
2026-04-26 09:00 39.32831 25.13424 35041 ft 478 kts 160°
2026-04-26 09:00 39.26538 25.16196 35042 ft 478 kts 160°
2026-04-26 09:01 39.20244 25.18963 35041 ft 478 kts 160°
2026-04-26 09:01 39.13954 25.21724 35038 ft 477 kts 159°
2026-04-26 09:02 39.07661 25.24480 35038 ft 477 kts 159°
2026-04-26 09:02 39.01377 25.27228 35036 ft 477 kts 159°
2026-04-26 09:03 38.95081 25.29975 35033 ft 477 kts 159°
2026-04-26 09:03 38.88802 25.32710 35041 ft 477 kts 159°
2026-04-26 09:04 38.82524 25.35439 35025 ft 476 kts 159°
2026-04-26 09:04 38.76246 25.38164 35042 ft 476 kts 159°
2026-04-26 09:05 38.69962 25.40886 35029 ft 476 kts 159°
2026-04-26 09:05 38.63693 25.43596 35036 ft 476 kts 159°
2026-04-26 09:06 38.57421 25.46303 35039 ft 475 kts 159°
2026-04-26 09:06 38.51198 25.48983 35025 ft 475 kts 159°
2026-04-26 09:07 38.44930 25.51678 35041 ft 475 kts 158°
2026-04-26 09:07 38.38668 25.54366 35031 ft 475 kts 159°
2026-04-26 09:08 38.32413 25.57045 35028 ft 475 kts 159°
2026-04-26 09:08 38.26129 25.59732 35037 ft 475 kts 159°
2026-04-26 09:09 38.19851 25.62412 35034 ft 475 kts 158°
2026-04-26 09:09 38.13583 25.65083 35037 ft 476 kts 158°
2026-04-26 09:10 38.07308 25.67751 35029 ft 476 kts 158°
2026-04-26 09:10 38.01020 25.70421 35026 ft 476 kts 158°
2026-04-26 09:11 37.94766 25.73071 35023 ft 477 kts 158°
2026-04-26 09:11 37.88463 25.75737 35019 ft 477 kts 158°
2026-04-26 09:12 37.82169 25.78394 35015 ft 477 kts 158°
2026-04-26 09:12 37.75860 25.81053 35013 ft 477 kts 158°
2026-04-26 09:13 37.69549 25.83708 35011 ft 478 kts 158°
2026-04-26 09:13 37.63246 25.86355 35008 ft 478 kts 158°
2026-04-26 09:14 37.56963 25.88989 35007 ft 478 kts 158°
2026-04-26 09:14 37.50660 25.91626 35012 ft 478 kts 158°
2026-04-26 09:15 37.44342 25.94265 35005 ft 478 kts 158°
2026-04-26 09:15 37.38019 25.96902 35008 ft 478 kts 158°
2026-04-26 09:16 37.31691 25.99536 34999 ft 478 kts 158°
2026-04-26 09:16 37.25376 26.02159 34998 ft 478 kts 158°
2026-04-26 09:17 37.19055 26.04780 34994 ft 478 kts 158°
2026-04-26 09:17 37.12772 26.07382 34991 ft 478 kts 158°
2026-04-26 09:18 37.06466 26.09988 34997 ft 478 kts 158°
2026-04-26 09:18 37.01208 26.12158 35000 ft 478 kts 159°
2026-04-26 09:19 36.94849 26.14777 34988 ft 478 kts 159°
2026-04-26 09:19 36.88580 26.17355 34988 ft 478 kts 159°
2026-04-26 09:20 36.82256 26.19951 34985 ft 478 kts 159°
2026-04-26 09:20 36.75942 26.22540 34998 ft 478 kts 159°
2026-04-26 09:21 36.69626 26.25123 34979 ft 478 kts 159°
2026-04-26 09:21 36.63296 26.27708 34981 ft 478 kts 159°
2026-04-26 09:22 36.56980 26.30282 34971 ft 477 kts 159°
2026-04-26 09:22 36.50671 26.32851 34986 ft 477 kts 160°
2026-04-26 09:23 36.44369 26.35411 34985 ft 476 kts 160°
2026-04-26 09:23 36.38076 26.37964 34979 ft 476 kts 160°
2026-04-26 09:24 36.31816 26.40498 34978 ft 475 kts 160°
2026-04-26 09:24 36.25532 26.43038 34982 ft 475 kts 160°
2026-04-26 09:25 36.19242 26.45577 34976 ft 475 kts 160°
2026-04-26 09:25 36.12961 26.48107 34977 ft 475 kts 160°
2026-04-26 09:26 36.06659 26.50642 34978 ft 475 kts 160°
2026-04-26 09:26 36.00371 26.53164 34974 ft 476 kts 160°
2026-04-26 09:27 35.94079 26.55687 34979 ft 476 kts 160°
2026-04-26 09:27 35.87773 26.58211 34986 ft 476 kts 161°
2026-04-26 09:28 35.81460 26.60734 34977 ft 476 kts 161°
2026-04-26 09:28 35.75192 26.63234 34967 ft 476 kts 161°
2026-04-26 09:29 35.68892 26.65742 34970 ft 476 kts 161°
2026-04-26 09:29 35.62596 26.68245 34974 ft 475 kts 161°
2026-04-26 09:30 35.56325 26.70733 34972 ft 475 kts 161°
2026-04-26 09:30 35.50025 26.73230 34964 ft 475 kts 162°
2026-04-26 09:31 35.43725 26.75721 34969 ft 475 kts 162°
2026-04-26 09:31 35.37421 26.78211 34962 ft 475 kts 162°
2026-04-26 09:32 35.31114 26.80697 34963 ft 476 kts 162°
2026-04-26 09:32 35.24846 26.83164 34964 ft 476 kts 162°
2026-04-26 09:33 35.18539 26.85642 34961 ft 477 kts 162°
2026-04-26 09:33 35.12225 26.88119 34975 ft 477 kts 162°
2026-04-26 09:34 35.05900 26.90597 34964 ft 477 kts 162°
2026-04-26 09:34 34.99563 26.93075 34959 ft 477 kts 162°
2026-04-26 09:35 34.93267 26.95533 34960 ft 477 kts 162°
2026-04-26 09:35 34.86944 26.97997 34964 ft 478 kts 162°
2026-04-26 09:36 34.80603 27.00464 34965 ft 478 kts 162°
2026-04-26 09:36 34.74263 27.02928 34960 ft 478 kts 163°
2026-04-26 09:37 34.67917 27.05389 34968 ft 479 kts 163°
2026-04-26 09:37 34.61567 27.07848 34959 ft 479 kts 163°
2026-04-26 09:38 34.55205 27.10308 34962 ft 480 kts 163°
2026-04-26 09:38 34.48843 27.12764 34954 ft 480 kts 163°
2026-04-26 09:39 34.42479 27.15217 34958 ft 480 kts 163°
2026-04-26 09:39 34.36141 27.17656 34966 ft 480 kts 164°
2026-04-26 09:40 34.29762 27.20106 34962 ft 480 kts 164°
2026-04-26 09:40 34.23396 27.22549 34955 ft 480 kts 165°
2026-04-26 09:41 34.17023 27.24990 34954 ft 480 kts 165°
2026-04-26 09:41 34.10660 27.27423 34954 ft 479 kts 165°
2026-04-26 09:42 34.04311 27.29848 34954 ft 479 kts 165°
2026-04-26 09:42 33.98004 27.32252 34949 ft 478 kts 165°
2026-04-26 09:43 33.91969 27.35695 34945 ft 483 kts 148°
2026-04-26 09:43 33.86397 27.40254 34948 ft 484 kts 147°
2026-04-26 09:44 33.80834 27.44834 34950 ft 484 kts 148°
2026-04-26 09:44 33.75257 27.49357 34939 ft 484 kts 148°
2026-04-26 09:45 33.69684 27.53831 34945 ft 484 kts 149°
2026-04-26 09:45 33.64073 27.58321 34947 ft 484 kts 149°
2026-04-26 09:46 33.58471 27.62798 34944 ft 485 kts 149°
2026-04-26 09:46 33.52854 27.67282 34949 ft 485 kts 149°
2026-04-26 09:47 33.47229 27.71766 34947 ft 485 kts 149°
2026-04-26 09:47 33.41608 27.76240 34934 ft 485 kts 150°
2026-04-26 09:48 33.35983 27.80709 34948 ft 485 kts 150°
2026-04-26 09:48 33.30348 27.85180 34947 ft 486 kts 150°
2026-04-26 09:49 33.24709 27.89647 34963 ft 487 kts 150°
2026-04-26 09:49 33.19088 27.94092 34954 ft 487 kts 150°
2026-04-26 09:50 33.13439 27.98553 34952 ft 488 kts 150°
2026-04-26 09:50 33.07787 28.03009 34954 ft 488 kts 150°
2026-04-26 09:51 33.01963 28.07143 34946 ft 483 kts 160°
2026-04-26 09:51 32.95642 28.09656 34957 ft 477 kts 169°
2026-04-26 09:52 32.89236 28.11725 34949 ft 477 kts 170°
2026-04-26 09:52 32.79633 28.14864 34948 ft 477 kts 170°
2026-04-26 09:53 32.73259 28.16990 34954 ft 476 kts 170°
2026-04-26 09:53 32.66868 28.19130 34959 ft 476 kts 170°
2026-04-26 09:54 32.60492 28.21261 34959 ft 476 kts 170°
2026-04-26 09:54 32.54166 28.23371 34961 ft 475 kts 170°
2026-04-26 09:55 32.47799 28.25491 34967 ft 475 kts 170°
2026-04-26 09:55 32.41433 28.27606 34964 ft 475 kts 170°
2026-04-26 09:56 32.35070 28.29717 34950 ft 474 kts 171°
2026-04-26 09:56 32.28723 28.31821 34960 ft 474 kts 171°
2026-04-26 09:57 32.22373 28.33923 34977 ft 473 kts 171°
2026-04-26 09:57 32.16021 28.36023 34980 ft 473 kts 171°
2026-04-26 09:58 32.09674 28.38117 34947 ft 473 kts 172°
2026-04-26 09:58 32.03334 28.40206 34976 ft 473 kts 172°
2026-04-26 09:59 31.98066 28.41939 34985 ft 473 kts 172°
2026-04-26 09:59 31.90680 28.44366 34986 ft 474 kts 172°
2026-04-26 10:00 31.84329 28.46449 34955 ft 474 kts 172°
2026-04-26 10:00 31.77978 28.48529 34981 ft 474 kts 172°
2026-04-26 10:01 31.71633 28.50605 34988 ft 474 kts 172°
2026-04-26 10:01 31.65257 28.52688 34987 ft 475 kts 172°
2026-04-26 10:02 31.58881 28.54768 34989 ft 476 kts 172°
2026-04-26 10:02 31.52502 28.56847 34988 ft 475 kts 173°
2026-04-26 10:03 31.46121 28.58923 34992 ft 476 kts 173°
2026-04-26 10:03 31.39788 28.60980 34991 ft 476 kts 173°
2026-04-26 10:04 31.33398 28.63052 34985 ft 476 kts 173°
2026-04-26 10:04 31.28052 28.64785 34979 ft 475 kts 173°
2026-04-26 10:05 31.21682 28.66847 34978 ft 474 kts 173°
2026-04-26 10:05 31.15363 28.68888 34987 ft 473 kts 173°
2026-04-26 10:06 31.09016 28.70937 35002 ft 472 kts 173°
2026-04-26 10:06 31.02690 28.72975 34980 ft 471 kts 174°
2026-04-26 10:07 30.96363 28.75011 34984 ft 471 kts 174°
2026-04-26 10:07 30.90045 28.77040 34994 ft 470 kts 174°
2026-04-26 10:08 30.83736 28.79064 35002 ft 471 kts 174°
2026-04-26 10:08 30.77412 28.81089 34982 ft 471 kts 174°
2026-04-26 10:09 30.71101 28.83109 34998 ft 471 kts 174°
2026-04-26 10:09 30.64780 28.85129 35014 ft 472 kts 174°
2026-04-26 10:10 30.58435 28.87153 35012 ft 472 kts 174°
2026-04-26 10:10 30.52096 28.89173 35015 ft 473 kts 174°
2026-04-26 10:11 30.45748 28.91194 35007 ft 473 kts 175°
2026-04-26 10:11 30.39397 28.93213 35010 ft 473 kts 175°
2026-04-26 10:12 30.33038 28.95231 35015 ft 474 kts 175°
2026-04-26 10:12 30.26689 28.97244 35008 ft 474 kts 175°
2026-04-26 10:13 30.20325 28.99260 35000 ft 472 kts 176°
2026-04-26 10:13 30.13987 29.01265 35009 ft 472 kts 176°
2026-04-26 10:14 30.07657 29.03263 35006 ft 471 kts 176°
2026-04-26 10:14 30.01330 29.05257 35014 ft 471 kts 176°
2026-04-26 10:15 29.95047 29.07235 35008 ft 471 kts 176°
2026-04-26 10:15 29.88718 29.09225 35012 ft 471 kts 176°
2026-04-26 10:16 29.82392 29.11212 35014 ft 471 kts 176°
2026-04-26 10:16 29.76062 29.13197 35015 ft 471 kts 176°
2026-04-26 10:17 29.69746 29.15176 34979 ft 471 kts 176°
2026-04-26 10:17 29.63430 29.17152 35008 ft 470 kts 176°
2026-04-26 10:18 29.57101 29.19129 35027 ft 471 kts 176°
2026-04-26 10:18 29.50770 29.21103 35022 ft 471 kts 176°
2026-04-26 10:19 29.44475 29.23065 35027 ft 472 kts 176°
2026-04-26 10:19 29.38146 29.25036 35020 ft 471 kts 177°
2026-04-26 10:20 29.32873 29.26675 35030 ft 472 kts 177°
2026-04-26 10:20 29.25471 29.28973 35034 ft 472 kts 177°
2026-04-26 10:21 29.19118 29.30943 35032 ft 473 kts 177°
2026-04-26 10:21 29.12783 29.33197 35027 ft 487 kts 168°
2026-04-26 10:22 29.09749 29.35029 35025 ft 503 kts 158°
2026-04-26 10:22 29.06865 29.37345 35048 ft 509 kts 155°
2026-04-26 10:22 29.01171 29.42202 35039 ft 510 kts 154°
2026-04-26 10:23 28.95482 29.47057 35036 ft 510 kts 154°
2026-04-26 10:23 28.89775 29.51836 35044 ft 509 kts 155°
2026-04-26 10:24 28.84081 29.56554 35005 ft 508 kts 155°
2026-04-26 10:24 28.78335 29.61301 35045 ft 507 kts 155°
2026-04-26 10:25 28.72658 29.65987 35058 ft 507 kts 155°
2026-04-26 10:25 28.66931 29.70711 35060 ft 508 kts 155°
2026-04-26 10:26 28.61214 29.75421 35063 ft 508 kts 155°
2026-04-26 10:26 28.55473 29.80147 35063 ft 509 kts 155°
2026-04-26 10:27 28.49735 29.84864 35046 ft 508 kts 155°
2026-04-26 10:27 28.43999 29.89571 35058 ft 509 kts 155°
2026-04-26 10:28 28.38244 29.94286 35074 ft 510 kts 155°
2026-04-26 10:28 28.32480 29.99003 35074 ft 511 kts 155°
2026-04-26 10:29 28.26698 30.03729 35080 ft 512 kts 155°
2026-04-26 10:29 28.20907 30.08456 35027 ft 513 kts 156°
2026-04-26 10:30 28.15127 30.13172 35075 ft 511 kts 156°
2026-04-26 10:30 28.09386 30.17846 35084 ft 510 kts 156°
2026-04-26 10:31 28.03623 30.22530 35084 ft 510 kts 156°
2026-04-26 10:31 27.97859 30.27209 35086 ft 509 kts 156°
2026-04-26 10:32 27.92102 30.31876 35090 ft 508 kts 156°
2026-04-26 10:32 27.86361 30.36526 35079 ft 506 kts 156°
2026-04-26 10:33 27.80638 30.41153 35070 ft 505 kts 156°
2026-04-26 10:33 27.74964 30.45735 35084 ft 504 kts 156°
2026-04-26 10:34 27.69232 30.50358 35100 ft 503 kts 156°
2026-04-26 10:34 27.63588 30.54902 35098 ft 502 kts 156°
2026-04-26 10:35 27.57901 30.59476 35104 ft 501 kts 156°
2026-04-26 10:35 27.52227 30.64035 35099 ft 500 kts 157°
2026-04-26 10:36 27.46555 30.68584 35112 ft 500 kts 157°
2026-04-26 10:36 27.40913 30.73104 35109 ft 500 kts 157°
2026-04-26 10:37 27.35196 30.77678 35106 ft 501 kts 157°
2026-04-26 10:37 27.29528 30.82208 35109 ft 501 kts 157°
2026-04-26 10:38 27.23835 30.86752 35070 ft 501 kts 157°
2026-04-26 10:38 27.18188 30.91256 35108 ft 501 kts 157°
2026-04-26 10:39 27.12492 30.95791 35127 ft 502 kts 157°
2026-04-26 10:39 27.06799 31.00319 35127 ft 502 kts 157°
2026-04-26 10:40 27.01353 31.05410 35120 ft 525 kts 142°
2026-04-26 10:40 26.96689 31.11810 35126 ft 531 kts 138°
2026-04-26 10:41 26.92113 31.18316 35115 ft 531 kts 139°
2026-04-26 10:41 26.87533 31.24720 35080 ft 529 kts 139°
2026-04-26 10:42 26.83655 31.30062 35064 ft 528 kts 139°
2026-04-26 10:42 26.78226 31.37500 35053 ft 527 kts 140°
2026-04-26 10:43 26.73618 31.43798 35029 ft 526 kts 140°
2026-04-26 10:43 26.68980 31.50136 35033 ft 525 kts 140°
2026-04-26 10:44 26.64347 31.56463 35003 ft 525 kts 140°
2026-04-26 10:44 26.59724 31.62769 35005 ft 525 kts 140°
2026-04-26 10:45 26.55114 31.69047 34992 ft 525 kts 140°
2026-04-26 10:45 26.50486 31.75339 34958 ft 525 kts 140°
2026-04-26 10:46 26.45849 31.81636 34973 ft 525 kts 140°
2026-04-26 10:46 26.41201 31.87936 34831 ft 530 kts 140°
2026-04-26 10:47 26.38847 31.91118 34588 ft 533 kts 139°
2026-04-26 10:47 26.36496 31.94302 34363 ft 530 kts 139°
2026-04-26 10:47 26.34161 31.97468 34133 ft 527 kts 140°
2026-04-26 10:47 26.31836 32.00618 33911 ft 527 kts 140°
2026-04-26 10:48 26.29500 32.03774 33657 ft 527 kts 139°
2026-04-26 10:48 26.27165 32.06923 33403 ft 527 kts 139°
2026-04-26 10:48 26.25610 32.09020 33235 ft 527 kts 139°
2026-04-26 10:48 26.23284 32.12155 32987 ft 527 kts 139°
2026-04-26 10:49 26.20946 32.15305 32738 ft 527 kts 139°
2026-04-26 10:49 26.18614 32.18446 32491 ft 526 kts 138°
2026-04-26 10:49 26.16275 32.21593 32254 ft 525 kts 138°
2026-04-26 10:49 26.13952 32.24719 32005 ft 524 kts 138°
2026-04-26 10:50 26.11658 32.27856 31684 ft 524 kts 134°
2026-04-26 10:50 26.09723 32.31335 31075 ft 531 kts 123°
2026-04-26 10:50 26.08214 32.35086 30440 ft 535 kts 115°
2026-04-26 10:50 26.07058 32.39056 29676 ft 541 kts 107°
2026-04-26 10:51 26.06387 32.43156 29122 ft 536 kts 102°
2026-04-26 10:51 26.05203 32.51257 27982 ft 524 kts 102°
2026-04-26 10:51 26.04600 32.55229 27433 ft 519 kts 102°
2026-04-26 10:52 26.03988 32.59161 26893 ft 513 kts 103°
2026-04-26 10:52 26.03375 32.63046 26384 ft 508 kts 103°
2026-04-26 10:52 26.02761 32.66907 25853 ft 502 kts 103°
2026-04-26 10:52 26.02153 32.70716 25310 ft 497 kts 103°
2026-04-26 10:53 26.01558 32.74436 24797 ft 492 kts 103°
2026-04-26 10:53 26.00963 32.78160 24286 ft 487 kts 103°
2026-04-26 10:53 26.00373 32.81846 23778 ft 482 kts 103°
2026-04-26 10:54 25.99211 32.89104 22611 ft 472 kts 103°
2026-04-26 10:54 25.98640 32.92665 22123 ft 465 kts 103°
2026-04-26 10:54 25.98075 32.96184 21610 ft 459 kts 103°
2026-04-26 10:54 25.97517 32.99652 21112 ft 453 kts 103°
2026-04-26 10:55 25.96962 33.03090 20605 ft 448 kts 103°
2026-04-26 10:55 25.96415 33.06480 20108 ft 443 kts 103°
2026-04-26 10:55 25.95871 33.09838 19625 ft 438 kts 103°
2026-04-26 10:55 25.95335 33.13145 19143 ft 434 kts 102°
2026-04-26 10:56 25.94801 33.16436 18660 ft 430 kts 103°
2026-04-26 10:56 25.94273 33.19685 18186 ft 426 kts 103°
2026-04-26 10:56 25.93748 33.22912 17645 ft 422 kts 102°
2026-04-26 10:56 25.93228 33.26102 17147 ft 418 kts 102°
2026-04-26 10:57 25.92713 33.29257 16658 ft 414 kts 102°
2026-04-26 10:57 25.92202 33.32386 16194 ft 410 kts 102°
2026-04-26 10:57 25.91694 33.35488 15729 ft 406 kts 102°
2026-04-26 10:57 25.91189 33.38570 15273 ft 403 kts 102°
2026-04-26 10:58 25.90694 33.41586 14831 ft 401 kts 102°
2026-04-26 10:58 25.90195 33.44622 14373 ft 398 kts 101°
2026-04-26 10:58 25.89694 33.47666 13919 ft 396 kts 101°
2026-04-26 10:58 25.89206 33.50626 13447 ft 394 kts 101°
2026-04-26 10:59 25.88713 33.53621 12953 ft 392 kts 101°
2026-04-26 10:59 25.88223 33.56586 12593 ft 387 kts 101°
2026-04-26 10:59 25.87740 33.59511 12353 ft 383 kts 102°
2026-04-26 10:59 25.87260 33.62406 12094 ft 381 kts 101°
2026-04-26 11:00 25.86779 33.65307 11880 ft 384 kts 102°
2026-04-26 11:00 25.86293 33.68230 11578 ft 385 kts 101°
2026-04-26 11:00 25.85810 33.71137 11161 ft 382 kts 101°
2026-04-26 11:00 25.85330 33.74023 10827 ft 376 kts 101°
2026-04-26 11:01 25.84861 33.76837 10666 ft 365 kts 101°
2026-04-26 11:01 25.84406 33.79566 10493 ft 355 kts 101°
2026-04-26 11:01 25.83961 33.82232 10329 ft 346 kts 101°
2026-04-26 11:01 25.83529 33.84818 10226 ft 335 kts 101°
2026-04-26 11:02 25.83112 33.87313 10103 ft 326 kts 101°
2026-04-26 11:02 25.82701 33.89761 9942 ft 318 kts 101°
2026-04-26 11:02 25.82304 33.92130 9903 ft 307 kts 102°
2026-04-26 11:02 25.81906 33.94498 9383 ft 314 kts 102°
2026-04-26 11:03 25.81504 33.96880 8996 ft 314 kts 101°
2026-04-26 11:03 25.81107 33.99233 8699 ft 313 kts 101°
2026-04-26 11:03 25.80707 34.01604 8350 ft 313 kts 101°
2026-04-26 11:03 25.80309 34.03969 8036 ft 312 kts 101°
2026-04-26 11:04 25.79911 34.06333 7700 ft 308 kts 102°
2026-04-26 11:04 25.79523 34.08638 7373 ft 300 kts 102°
2026-04-26 11:04 25.79143 34.10892 7076 ft 293 kts 102°
2026-04-26 11:04 25.78772 34.13076 6784 ft 286 kts 102°
2026-04-26 11:05 25.78408 34.15225 6498 ft 279 kts 103°
2026-04-26 11:05 25.78053 34.17311 6270 ft 273 kts 103°
2026-04-26 11:05 25.77707 34.19350 6103 ft 262 kts 102°
2026-04-26 11:05 25.77380 34.21290 5960 ft 252 kts 102°
2026-04-26 11:06 25.77054 34.23193 5902 ft 249 kts 103°
2026-04-26 11:06 25.76731 34.25087 5788 ft 251 kts 102°
2026-04-26 11:06 25.76418 34.26934 5680 ft 245 kts 103°
2026-04-26 11:06 25.76097 34.28812 5422 ft 244 kts 103°
2026-04-26 11:07 25.75781 34.30658 5206 ft 243 kts 102°
2026-04-26 11:07 25.75473 34.32466 4977 ft 242 kts 102°
2026-04-26 11:07 25.75112 34.34270 4812 ft 238 kts 106°
2026-04-26 11:07 25.74710 34.36054 4639 ft 237 kts 105°
2026-04-26 11:08 25.74312 34.37822 4450 ft 236 kts 105°
2026-04-26 11:08 25.73917 34.39586 4273 ft 233 kts 106°
2026-04-26 11:08 25.73531 34.41324 4103 ft 230 kts 105°
2026-04-26 11:08 25.73154 34.43029 3931 ft 222 kts 105°
2026-04-26 11:09 25.72798 34.44644 3792 ft 210 kts 105°
2026-04-26 11:09 25.72454 34.46189 3669 ft 205 kts 104°
2026-04-26 11:09 25.72011 34.47660 3453 ft 199 kts 124°
2026-04-26 11:09 25.70950 34.48575 3247 ft 192 kts 151°
2026-04-26 11:10 25.69795 34.49292 3012 ft 188 kts 149°
2026-04-26 11:10 25.68680 34.50005 2822 ft 183 kts 148°
2026-04-26 11:10 25.67615 34.50697 2610 ft 174 kts 148°
2026-04-26 11:10 25.66586 34.51370 2325 ft 169 kts 149°
2026-04-26 11:11 25.65587 34.52021 2060 ft 163 kts 146°
2026-04-26 11:11 25.64647 34.52630 1955 ft 156 kts 147°
2026-04-26 11:11 25.63702 34.53225 1816 ft 156 kts 148°
2026-04-26 11:11 25.62788 34.53817 1615 ft 151 kts 145°
2026-04-26 11:12 25.61917 34.54437 1465 ft 146 kts 144°
2026-04-26 11:12 25.61049 34.55009 1263 ft 143 kts 147°
2026-04-26 11:12 25.60189 34.55539 1011 ft 142 kts 147°
2026-04-26 11:12 25.59313 34.56087 837 ft 145 kts 146°
2026-04-26 11:13 25.58444 34.56645 654 ft 143 kts 145°
2026-04-26 11:13 25.57578 34.57195 434 ft 144 kts 148°
2026-04-26 11:13 25.56705 34.57746 268 ft 139 kts 146°
2026-04-26 11:13 25.55988 34.58203 261 ft 90 kts 150°
2026-04-26 11:14 25.55631 34.58433 259 ft 29 kts 150°
2026-04-26 11:14 25.55507 34.58512 255 ft 13 kts 150°
2026-04-26 11:14 25.55500 34.58595 255 ft 12 kts 61°
2026-04-26 11:14 25.55527 34.58647 255 ft 12 kts 60°
2026-04-26 11:15 25.55583 34.58756 250 ft 14 kts 59°
2026-04-26 11:15 25.55630 34.58849 241 ft 10 kts 67°
2026-04-26 11:15 25.55602 34.58910 241 ft 10 kts 151°
2026-04-26 11:15 25.55542 34.58947 241 ft 10 kts 150°
2026-04-26 11:16 25.55484 34.58985 241 ft 9 kts 149°
2026-04-26 11:16 25.55428 34.59021 241 ft 9 kts 150°
2026-04-26 11:16 25.55377 34.59053 241 ft 9 kts 150°
2026-04-26 11:16 25.55325 34.59087 241 ft 8 kts 150°
2026-04-26 11:17 25.55316 34.59093 241 ft 3 kts 149°
2026-04-26 11:17 25.55300 34.59114 261 ft 4 kts 92°
2026-04-26 11:17 25.55312 34.59140 241 ft 4 kts 57°
2026-04-26 11:17 25.55324 34.59162 241 ft 3 kts 60°
2026-04-26 11:18 25.55330 34.59171 241 ft 0 kts 59°